Location: Rounton
(54.4000°N, 1.3500°W)
Time: 10:50:42
(UTC+01:00)

Vanguard 1 - Pass Details

Date: 02 March 2024
Orbit: 653 x 3825 km, 34.2° (Epoch: 22 April)

Event Time Altitude Azimuth Distance (km) Brightness Sun altitude
Rises 23:42:13 0° 268° (W) 6,370 14.3 -41.8°
Reaches altitude 10° 23:47:04 10° 257° (WSW) 5,791 13.9 -41.9°
Enters shadow 23:54:20 22° 234° (SW) 5,339 13.5 -42.1°
